DLH1MK EDDS-EDDM

Flight info

Callsign DLH1MK
Flight time 0h 22m
Altitude 15000
Route ABTAL4H/07 ABTAL L173 RIXED Y161 RIDAR Z98 WLD T104 ROKIL ROKIL1A
Aircraft A20N/M-SDE2E3FGHIRWXY/LB1

Departure

Time 2026-05-04 15:01
Airport Stuttgart Airport (EDDS)

Arrival

Time 2026-05-04 15:23
Airport Munich Airport (EDDM)
Time Latitude Longitude Altitude Speed Heading
2026-05-04 14:28 48.68943 9.19644 1302 ft 0 kts 345°
2026-05-04 14:50 48.68942 9.19645 1303 ft 1 kts 345°
2026-05-04 14:51 48.68928 9.19651 1302 ft 2 kts 345°
2026-05-04 14:51 48.68913 9.19657 1302 ft 2 kts 345°
2026-05-04 14:51 48.68898 9.19659 1301 ft 2 kts
2026-05-04 14:51 48.68883 9.19655 1302 ft 2 kts 20°
2026-05-04 14:52 48.68870 9.19645 1302 ft 2 kts 36°
2026-05-04 14:52 48.68859 9.19630 1302 ft 2 kts 51°
2026-05-04 14:52 48.68851 9.19610 1303 ft 2 kts 67°
2026-05-04 14:52 48.68848 9.19599 1303 ft 1 kts 76°
2026-05-04 14:53 48.68847 9.19594 1303 ft 0 kts 74°
2026-05-04 14:57 48.68849 9.19604 1303 ft 3 kts 74°
2026-05-04 14:58 48.68863 9.19673 1301 ft 9 kts 75°
2026-05-04 14:58 48.68886 9.19794 1298 ft 13 kts 74°
2026-05-04 14:58 48.68835 9.19900 1294 ft 16 kts 154°
2026-05-04 14:58 48.68727 9.19968 1291 ft 15 kts 165°
2026-05-04 14:59 48.68676 9.19990 1290 ft 0 kts 163°
2026-05-04 14:59 48.68675 9.19990 1290 ft 0 kts 163°
2026-05-04 14:59 48.68618 9.20018 1289 ft 7 kts 153°
2026-05-04 15:00 48.68588 9.20092 1287 ft 10 kts 75°
2026-05-04 15:00 48.68624 9.20276 1283 ft 41 kts 73°
2026-05-04 15:00 48.68780 9.21096 1262 ft 118 kts 74°
2026-05-04 15:01 48.69377 9.24361 1992 ft 173 kts 74°
2026-05-04 15:01 48.69659 9.26101 2785 ft 173 kts 75°
2026-05-04 15:01 48.69944 9.27855 3494 ft 175 kts 73°
2026-05-04 15:01 48.70307 9.29664 4010 ft 189 kts 71°
2026-05-04 15:02 48.70722 9.31640 4465 ft 209 kts 72°
2026-05-04 15:02 48.71176 9.33856 4944 ft 230 kts 73°
2026-05-04 15:02 48.71639 9.36230 5495 ft 248 kts 74°
2026-05-04 15:02 48.72132 9.38825 6059 ft 266 kts 75°
2026-05-04 15:03 48.72650 9.41576 6794 ft 278 kts 75°
2026-05-04 15:03 48.73179 9.44378 7669 ft 283 kts 75°
2026-05-04 15:03 48.73722 9.47261 8536 ft 288 kts 76°
2026-05-04 15:03 48.74266 9.50155 9374 ft 293 kts 77°
2026-05-04 15:04 48.74825 9.53140 10194 ft 299 kts 77°
2026-05-04 15:04 48.75395 9.56212 10804 ft 312 kts 77°
2026-05-04 15:04 48.75920 9.59490 11245 ft 328 kts 86°
2026-05-04 15:04 48.75753 9.62972 11635 ft 341 kts 104°
2026-05-04 15:05 48.75169 9.66567 12028 ft 359 kts 107°
2026-05-04 15:05 48.74533 9.70270 12431 ft 374 kts 106°
2026-05-04 15:05 48.73911 9.74137 13099 ft 381 kts 105°
2026-05-04 15:05 48.73318 9.78054 13662 ft 385 kts 104°
2026-05-04 15:06 48.72745 9.82010 13943 ft 387 kts 104°
2026-05-04 15:06 48.72187 9.85970 13959 ft 377 kts 104°
2026-05-04 15:06 48.71668 9.89714 13962 ft 358 kts 104°
2026-05-04 15:07 48.70616 9.97289 13967 ft 384 kts 103°
2026-05-04 15:07 48.70061 10.01287 13970 ft 386 kts 103°
2026-05-04 15:07 48.69511 10.05256 13961 ft 386 kts 103°
2026-05-04 15:07 48.68969 10.09166 13956 ft 386 kts 103°
2026-05-04 15:08 48.68413 10.13159 13950 ft 385 kts 103°
2026-05-04 15:08 48.67862 10.17120 13940 ft 386 kts 103°
2026-05-04 15:08 48.67315 10.21040 13940 ft 386 kts 103°
2026-05-04 15:08 48.66759 10.25008 13937 ft 386 kts 103°
2026-05-04 15:09 48.66197 10.29006 13942 ft 387 kts 103°
2026-05-04 15:09 48.65642 10.32942 13938 ft 387 kts 104°
2026-05-04 15:09 48.65081 10.36919 13939 ft 387 kts 104°
2026-05-04 15:10 48.63912 10.44798 13937 ft 385 kts 109°
2026-05-04 15:10 48.63010 10.48636 13938 ft 383 kts 113°
2026-05-04 15:10 48.61055 10.56072 13936 ft 383 kts 114°
2026-05-04 15:11 48.60064 10.59794 13925 ft 382 kts 114°
2026-05-04 15:11 48.59067 10.63548 13797 ft 383 kts 114°
2026-05-04 15:11 48.58093 10.67217 13333 ft 379 kts 114°
2026-05-04 15:11 48.57117 10.70899 12858 ft 375 kts 114°
2026-05-04 15:12 48.56151 10.74550 12422 ft 373 kts 114°
2026-05-04 15:12 48.55195 10.78152 11955 ft 370 kts 114°
2026-05-04 15:12 48.54196 10.81698 11511 ft 366 kts 117°
2026-05-04 15:12 48.53090 10.85109 11072 ft 363 kts 119°
2026-05-04 15:13 48.51958 10.88491 10623 ft 359 kts 119°
2026-05-04 15:13 48.50850 10.91782 10176 ft 352 kts 119°
2026-05-04 15:13 48.49747 10.95047 9733 ft 344 kts 119°
2026-05-04 15:13 48.48685 10.98190 9348 ft 327 kts 119°
2026-05-04 15:14 48.47689 11.01117 8980 ft 309 kts 119°
2026-05-04 15:14 48.46726 11.03914 8606 ft 292 kts 119°
2026-05-04 15:14 48.45807 11.06544 8254 ft 280 kts 119°
2026-05-04 15:14 48.44907 11.09081 7940 ft 275 kts 119°
2026-05-04 15:15 48.44002 11.11599 7628 ft 274 kts 119°
2026-05-04 15:15 48.43090 11.14101 7314 ft 273 kts 119°
2026-05-04 15:15 48.42167 11.16600 7001 ft 272 kts 119°
2026-05-04 15:16 48.40301 11.21541 6373 ft 270 kts 119°
2026-05-04 15:16 48.39406 11.23996 6060 ft 268 kts 115°
2026-05-04 15:16 48.37797 11.29004 5432 ft 266 kts 114°
2026-05-04 15:17 48.37002 11.31499 5126 ft 262 kts 114°
2026-05-04 15:17 48.35467 11.36253 4650 ft 246 kts 114°
2026-05-04 15:17 48.34728 11.38519 4479 ft 238 kts 114°
2026-05-04 15:18 48.34106 11.40768 4316 ft 229 kts 104°
2026-05-04 15:18 48.33797 11.43116 4219 ft 229 kts 92°
2026-05-04 15:18 48.33815 11.45502 4122 ft 228 kts 82°
2026-05-04 15:19 48.34253 11.49981 3981 ft 205 kts 80°
2026-05-04 15:19 48.34443 11.52044 3976 ft 196 kts 81°
2026-05-04 15:19 48.34757 11.56110 4053 ft 196 kts 82°
2026-05-04 15:20 48.34900 11.58112 3824 ft 191 kts 82°
2026-05-04 15:20 48.35036 11.60036 3569 ft 178 kts 81°
2026-05-04 15:20 48.35161 11.61800 3362 ft 163 kts 81°
2026-05-04 15:20 48.35279 11.63426 3156 ft 149 kts 81°
2026-05-04 15:21 48.35387 11.64907 2954 ft 137 kts 81°
2026-05-04 15:21 48.35494 11.66320 2790 ft 138 kts 82°
2026-05-04 15:21 48.35692 11.69216 2461 ft 139 kts 82°
2026-05-04 15:22 48.35803 11.70649 2283 ft 139 kts 82°
2026-05-04 15:22 48.35913 11.72099 2099 ft 140 kts 82°
2026-05-04 15:22 48.36144 11.75004 1735 ft 140 kts 82°
2026-05-04 15:23 48.36251 11.76445 1572 ft 140 kts 82°
2026-05-04 15:23 48.36361 11.77877 1479 ft 133 kts 83°
2026-05-04 15:23 48.36458 11.79086 1471 ft 94 kts 84°
2026-05-04 15:23 48.36508 11.79790 1467 ft 44 kts 86°
2026-05-04 15:24 48.36391 11.80395 1465 ft 12 kts 120°
2026-05-04 15:24 48.36290 11.80461 1465 ft 12 kts 259°
2026-05-04 15:25 48.36280 11.80332 1466 ft 13 kts 264°
2026-05-04 15:25 48.36269 11.80188 1467 ft 14 kts 263°
2026-05-04 15:25 48.36258 11.80032 1468 ft 15 kts 265°
2026-05-04 15:26 48.36229 11.79678 1469 ft 19 kts 263°
2026-05-04 15:26 48.36204 11.79491 1470 ft 16 kts 225°
2026-05-04 15:26 48.36002 11.79495 1472 ft 3 kts 174°
2026-05-04 15:27 48.35994 11.79496 1472 ft 0 kts 174°
2026-05-04 15:27 48.35981 11.79498 1472 ft 2 kts 174°
2026-05-04 15:28 48.35928 11.79508 1472 ft 4 kts 172°
2026-05-04 15:28 48.35894 11.79514 1473 ft 5 kts 173°
2026-05-04 15:28 48.35799 11.79577 1473 ft 12 kts 99°
2026-05-04 15:29 48.35808 11.79720 1472 ft 15 kts 83°
2026-05-04 15:30 48.35743 11.79921 1472 ft 6 kts 264°
2026-05-04 15:30 48.35742 11.79914 1472 ft 0 kts 264°